This is the latest recevied weather packets stored in our database for station/object KI5RAB. If no packets are shown the sender has not sent any weather packets the latest 10 day(s).
| Time | Temp. | Humidity | Pressure | Rain* | Wind** | Luminosity | Snow |
|---|---|---|---|---|---|---|---|
| 1777591130 | 24.44° C | 70% | 1012.4 hPa | 0 mm | - | 87 W/m² | - |
| 1777590825 | 24.44° C | 70% | 1012.2 hPa | 0 mm | - | 133 W/m² | - |
| 1777590521 | 24.44° C | 71% | 1012.2 hPa | 0 mm | - | 149 W/m² | - |
| 1777590218 | 24.44° C | 71% | 1012.5 hPa | 0 mm | - | 161 W/m² | - |
| 1777589916 | 24.44° C | 72% | 1012.3 hPa | 0 mm | - | 163 W/m² | - |
| 1777589611 | 24.44° C | 75% | 1012.3 hPa | 0 mm | - | 159 W/m² | - |
| 1777589309 | 24.44° C | 76% | 1012.8 hPa | 0 mm | - | 97 W/m² | - |
| 1777589006 | 24.44° C | 76% | 1012.6 hPa | 0 mm | - | 82 W/m² | - |
| 1777588702 | 24.44° C | 76% | 1012.5 hPa | 0 mm | - | 166 W/m² | - |
| 1777588398 | 25° C | 75% | 1012.1 hPa | 0 mm | - | 241 W/m² | - |
| 1777588093 | 25° C | 74% | 1012.1 hPa | 0 mm | - | 315 W/m² | - |
| 1777587784 | 24.44° C | 75% | 1012.1 hPa | 0 mm | - | 384 W/m² | - |
| 1777587483 | 24.44° C | 75% | 1012.2 hPa | 0 mm | - | 308 W/m² | - |
| 1777587180 | 24.44° C | 76% | 1012.1 hPa | 0 mm | - | 367 W/m² | - |
| 1777586869 | 23.89° C | 76% | 1012.2 hPa | 0 mm | - | 294 W/m² | - |
| 1777586565 | 23.89° C | 77% | 1012.3 hPa | 0 mm | - | 408 W/m² | - |
| 1777586261 | 23.33° C | 78% | 1012.2 hPa | 0 mm | - | 443 W/m² | - |
| 1777585953 | 23.33° C | 78% | 1012.1 hPa | 0 mm | - | 261 W/m² | - |
| 1777585648 | 23.33° C | 79% | 1012.5 hPa | 0 mm | - | 316 W/m² | - |
| 1777585344 | 22.78° C | 79% | 1012.8 hPa | 0 mm | - | 295 W/m² | - |
| 1777585039 | 22.78° C | 78% | 1012.7 hPa | 0 mm | - | 352 W/m² | - |
| 1777584735 | 22.78° C | 80% | 1012.9 hPa | 0 mm | - | 320 W/m² | - |
| 1777584433 | 22.78° C | 80% | 1013 hPa | 0 mm | - | 235 W/m² | - |
| 1777584129 | 22.78° C | 80% | 1013 hPa | 0 mm | - | 228 W/m² | - |
| 1777583828 | 22.78° C | 79% | 1013.1 hPa | 0 mm | - | 293 W/m² | - |
* Rain latest hour (hover to see other rain measurements)
** Current wind speed in m/s (hover to see current wind gust speed)